Home   Weather   New Port Richey   Past weeks
Flag for USA

Past Weather in New Port Richey, Florida, USA — Yesterday and Last 2 Weeks

Now
73 °F

Rain. Overcast.


Feels Like: 70 °F
Forecast: 82 / 74 °F
Wind: 9 mph from Southeast

Location: Clearwater Air Park

Current Time: Oct 19, 2019 at 5:41:52 am

Latest Report: Oct 19, 2019 at 5:15 am


Visibility: 7 mi

Pressure: 29.78 "Hg

Humidity: 94%

Dew Point: 72 °F

Location of New Port RicheyLocation

Past Weather in New Port Richey — Graph

°F

New Port Richey Temperature Yesterday

Maximum temperature yesterday: 73 °F (at 12:15 am)
Minimum temperature yesterday: 70 °F (at 5:55 am)
Average temperature yesterday: 72 °F

High & Low Weather Summary for the Past Weeks

 TemperatureHumidityPressure
High90 °F (Oct 5, 2:35 pm)100% (Oct 5, 7:35 am)30.09 "Hg (Oct 5, 7:35 am)
Low70 °F (Oct 10, 6:35 am)39% (Oct 12, 5:15 pm)29.76 "Hg (Oct 19, 4:15 am)
Average77 °F78%29.96 "Hg
* Reported Oct 4 4:35 am — Oct 19 4:15 am, New Port Richey. Weather by CustomWeather, © 2019

Note: Actual official high and low records may vary slightly from our data, if they occured in-between our weather recording intervals... More about our weather records

Advertising

New Port Richey Weather History for the Previous 24 Hours

Scroll right to see more
 ConditionsComfort  
Time TempWeatherWind HumidityBarometerVisibility
4:15 am
Sat, Oct 19
73 °FRain. Overcast.13 mph94%29.76 "Hg5 mi
3:55 am73 °FRain. Partly cloudy.10 mph94%29.78 "Hg5 mi
3:35 am73 °FRain. Passing clouds.12 mph94%29.80 "Hg3 mi
3:15 am73 °FLight rain. Passing clouds.13 mph94%29.79 "Hg5 mi
2:55 am73 °FHeavy rain. Overcast.14 mph100%29.80 "Hg3 mi
2:35 am75 °FDrizzle. Overcast.5 mph94%29.81 "Hg7 mi
2:15 am75 °FRain. Mostly cloudy.8 mph94%29.80 "Hg7 mi
1:55 am75 °FRain. Overcast.10 mph94%29.80 "Hg5 mi
1:35 am75 °FRain. Mostly cloudy.10 mph94%29.81 "Hg5 mi
1:15 am75 °FLight rain. Mostly cloudy.8 mph94%29.81 "Hg7 mi
12:55 am75 °FLight rain. Low clouds.7 mph94%29.82 "Hg7 mi
12:35 am73 °FLight rain. Mostly cloudy.6 mph100%29.82 "Hg7 mi
12:15 am73 °FLight rain. Mostly cloudy.7 mph100%29.84 "Hg10 mi
11:55 pm
Fri, Oct 18
73 °FLight rain. Overcast.8 mph100%29.83 "Hg10 mi
11:35 pm73 °FLight rain. Partly cloudy.6 mph100%29.85 "Hg10 mi
11:15 pm73 °FLight rain. Partly cloudy.8 mph100%29.85 "Hg10 mi
10:35 pm73 °FRain. Overcast.7 mph94%29.85 "Hg7 mi
10:15 pm73 °FRain. Overcast.No wind94%29.87 "Hg5 mi
9:55 pm72 °FHeavy rain. Low clouds.6 mph100%29.86 "Hg1 mi
9:35 pm72 °FHeavy rain. Mostly cloudy.8 mph100%29.85 "Hg1 mi
9:15 pm72 °FHeavy rain. Overcast.6 mph100%29.85 "Hg3 mi
8:55 pm72 °FHeavy rain. Overcast.8 mph100%29.84 "Hg5 mi
8:35 pm72 °FRain. Overcast.8 mph94%29.83 "Hg4 mi
7:55 pm72 °FLight rain. Overcast.7 mph94%29.84 "Hg10 mi
7:35 pm72 °FDrizzle. Mostly cloudy.5 mph94%29.85 "Hg10 mi
7:15 pm72 °FLight rain. Partly cloudy.8 mph94%29.83 "Hg7 mi
6:55 pm72 °FLight rain. Broken clouds.5 mph94%29.86 "Hg10 mi
6:35 pm72 °FLight rain. More clouds than sun.5 mph94%29.85 "Hg7 mi
6:15 pm72 °FLight rain. More clouds than sun.5 mph94%29.86 "Hg7 mi
5:55 pm72 °FRain. Cloudy.5 mph94%29.86 "Hg7 mi
5:35 pm72 °FRain. Cloudy.5 mph88%29.86 "Hg5 mi
5:15 pm72 °FLight rain. Broken clouds.5 mph88%29.85 "Hg7 mi
4:35 pm72 °FLight rain. Broken clouds.5 mph88%29.86 "Hg10 mi
4:15 pm70 °FScattered clouds.6 mph94%29.86 "Hg10 mi
3:55 pm70 °FRain. Scattered clouds.6 mph94%29.86 "Hg10 mi
3:35 pm72 °FLight rain. Broken clouds.6 mph88%29.86 "Hg10 mi
3:15 pm72 °FLight rain. Broken clouds.6 mph83%29.85 "Hg10 mi
2:55 pm72 °FRain. Partly sunny.6 mph83%29.87 "Hg10 mi
2:35 pm72 °FDrizzle. Partly sunny.6 mph83%29.89 "Hg10 mi
2:15 pm72 °FLight rain. Overcast.3 mph78%29.90 "Hg10 mi
1:55 pm73 °FLight rain. Partly sunny.5 mph74%29.91 "Hg10 mi
1:35 pm73 °FScattered clouds.5 mph74%29.91 "Hg10 mi
1:15 pm73 °FSunny.5 mph69%29.92 "Hg10 mi
12:55 pm73 °FScattered clouds.5 mph69%29.92 "Hg10 mi
12:35 pm73 °FScattered clouds.7 mph69%29.93 "Hg10 mi
12:15 pm73 °FScattered clouds.7 mph69%29.94 "Hg10 mi
11:35 am73 °FSunny.6 mph69%29.93 "Hg10 mi
11:15 am73 °FScattered clouds.5 mph69%29.94 "Hg10 mi
10:35 am72 °FScattered clouds.5 mph73%29.95 "Hg10 mi
10:15 am72 °FSunny.7 mph69%29.94 "Hg10 mi
9:55 am72 °FSunny.5 mph69%29.94 "Hg10 mi
9:35 am70 °FSunny.5 mph73%29.93 "Hg10 mi
9:15 am70 °FSunny.8 mph69%29.93 "Hg10 mi
8:55 am70 °FSunny.5 mph69%29.93 "Hg10 mi
8:35 am70 °FSunny.6 mph69%29.91 "Hg10 mi
8:15 am70 °FScattered clouds.6 mph69%29.93 "Hg10 mi
7:55 am70 °FSunny.5 mph69%29.92 "Hg10 mi
7:35 am70 °FSunny.7 mph69%29.91 "Hg10 mi
7:15 am70 °FClear.5 mph73%29.91 "Hg10 mi
6:55 am70 °FClear.5 mph73%29.91 "Hg10 mi
6:35 am70 °FClear.5 mph69%29.91 "Hg10 mi
6:15 am70 °FClear.3 mph69%29.90 "Hg10 mi
5:55 am70 °FPassing clouds.5 mph69%29.89 "Hg10 mi
5:35 am72 °FPassing clouds.5 mph65%29.89 "Hg10 mi
5:15 am72 °FOvercast.3 mph65%29.89 "Hg10 mi
Weather by CustomWeather, © 2019

See weather overview